Total_Precipitation_Accumulation
0.02 0.03 0.07 0.16 0.21 0.27 0.42 0.40 0.25 0.19 0.17 0.16 0.17 0.18 0.20 0.23 0.31 0.47 0.68 0.79 0.90 0.95 0.97 1.02 1.05 1.12 1.14 1.08 1.12 1.16 1.22 1.28 1.11 0.89 0.89 0.95 0.80 0.57 0.41 0.32 0.22 0.20 0.20
0.02 0.02 0.05 0.15 0.20 0.23 0.30 0.33 0.26 0.21 0.18 0.15 0.14 0.13 0.12 0.15 0.23 0.39 0.56 0.72 0.86 0.98 1.01 1.01 0.92 0.92 1.00 1.05 1.09 1.12 1.12 1.20 1.10 0.98 0.93 0.97 0.89 0.75 0.57 0.38 0.22 0.15 0.16
0.02 0.03 0.05 0.07 0.08 0.10 0.12 0.16 0.20 0.22 0.24 0.20 0.18 0.17 0.21 0.26 0.34 0.43 0.49 0.61 0.76 0.85 0.88 0.86 0.83 0.85 0.86 0.94 1.00 1.03 1.02 1.01 1.02 1.00 0.96 1.01 0.99 0.83 0.59 0.43 0.28 0.21 0.18
0.02 0.03 0.04 0.05 0.04 0.05 0.07 0.12 0.17 0.21 0.22 0.21 0.20 0.25 0.31 0.38 0.41 0.41 0.43 0.50 0.56 0.62 0.67 0.66 0.65 0.70 0.75 0.79 0.82 0.84 0.89 0.92 0.92 0.91 0.95 0.99 0.96 0.95 0.70 0.46 0.32 0.23 0.20
0.04 0.09 0.09 0.07 0.06 0.06 0.08 0.10 0.12 0.13 0.13 0.17 0.22 0.27 0.33 0.36 0.34 0.37 0.41 0.38 0.44 0.44 0.42 0.44 0.47 0.51 0.58 0.66 0.69 0.71 0.75 0.79 0.83 0.87 0.89 0.96 0.92 0.92 0.78 0.54 0.37 0.28 0.23
0.08 0.14 0.17 0.14 0.08 0.06 0.06 0.08 0.10 0.11 0.13 0.18 0.22 0.24 0.26 0.24 0.25 0.26 0.27 0.26 0.29 0.34 0.34 0.32 0.30 0.37 0.44 0.50 0.56 0.60 0.66 0.70 0.76 0.82 0.86 0.88 0.86 0.79 0.72 0.61 0.48 0.30 0.21
0.13 0.11 0.18 0.20 0.10 0.06 0.07 0.09 0.12 0.14 0.17 0.22 0.24 0.25 0.27 0.28 0.18 0.13 0.11 0.16 0.22 0.29 0.34 0.35 0.26 0.21 0.28 0.35 0.42 0.45 0.49 0.54 0.64 0.75 0.80 0.83 0.86 0.80 0.72 0.61 0.55 0.43 0.26
0.16 0.13 0.19 0.21 0.13 0.13 0.15 0.17 0.19 0.23 0.26 0.31 0.31 0.31 0.35 0.32 0.21 0.12 0.09 0.11 0.19 0.26 0.31 0.33 0.30 0.24 0.25 0.28 0.35 0.37 0.36 0.35 0.43 0.53 0.63 0.79 0.96 1.00 0.86 0.73 0.64 0.54 0.39
0.15 0.14 0.21 0.28 0.24 0.24 0.26 0.29 0.33 0.37 0.38 0.39 0.40 0.40 0.42 0.41 0.29 0.17 0.13 0.17 0.25 0.28 0.31 0.31 0.30 0.26 0.21 0.21 0.29 0.34 0.36 0.34 0.36 0.44 0.54 0.71 0.88 1.04 1.03 0.85 0.70 0.51 0.35
0.16 0.18 0.24 0.37 0.42 0.40 0.39 0.42 0.44 0.51 0.54 0.54 0.51 0.48 0.50 0.53 0.44 0.23 0.18 0.24 0.34 0.37 0.41 0.40 0.34 0.31 0.25 0.18 0.23 0.28 0.30 0.32 0.31 0.30 0.36 0.47 0.62 0.81 0.92 0.81 0.64 0.50 0.32
0.20 0.24 0.30 0.44 0.58 0.56 0.56 0.56 0.58 0.60 0.67 0.72 0.72 0.69 0.66 0.63 0.55 0.30 0.22 0.30 0.39 0.46 0.45 0.45 0.40 0.33 0.25 0.19 0.20 0.25 0.25 0.29 0.33 0.34 0.32 0.39 0.51 0.64 0.75 0.77 0.69 0.52 0.35
0.28 0.32 0.37 0.51 0.55 0.59 0.67 0.72 0.80 0.83 0.84 0.86 0.88 0.84 0.82 0.77 0.62 0.42 0.24 0.27 0.40 0.57 0.57 0.54 0.52 0.44 0.33 0.26 0.21 0.19 0.21 0.25 0.32 0.38 0.39 0.39 0.41 0.46 0.57 0.67 0.71 0.61 0.46
0.38 0.39 0.44 0.52 0.65 0.80 0.85 0.82 0.87 0.96 1.00 1.03 1.02 0.96 0.94 0.98 0.82 0.50 0.34 0.30 0.37 0.56 0.69 0.73 0.64 0.51 0.43 0.34 0.29 0.24 0.21 0.21 0.27 0.31 0.34 0.35 0.37 0.39 0.47 0.61 0.66 0.65 0.53
0.45 0.43 0.48 0.57 0.67 0.81 0.96 0.99 1.04 1.07 1.07 1.12 1.12 1.04 1.03 1.11 1.04 0.72 0.50 0.41 0.41 0.51 0.62 0.67 0.64 0.60 0.53 0.45 0.37 0.30 0.23 0.21 0.24 0.26 0.29 0.34 0.41 0.48 0.48 0.50 0.51 0.49 0.50
0.52 0.47 0.48 0.55 0.65 0.74 0.86 0.98 1.01 1.03 0.97 0.99 1.04 1.00 1.00 1.10 1.04 0.81 0.69 0.63 0.58 0.59 0.65 0.72 0.72 0.70 0.61 0.52 0.44 0.37 0.31 0.28 0.28 0.29 0.32 0.37 0.40 0.44 0.47 0.47 0.43 0.36 0.33
0.70 0.60 0.54 0.54 0.62 0.69 0.79 0.82 0.74 0.73 0.70 0.70 0.74 0.70 0.71 0.89 0.91 0.71 0.60 0.61 0.60 0.58 0.64 0.72 0.73 0.72 0.64 0.52 0.45 0.41 0.38 0.32 0.28 0.30 0.33 0.36 0.37 0.38 0.39 0.44 0.45 0.37 0.29
0.92 0.77 0.65 0.60 0.61 0.65 0.74 0.82 0.85 0.74 0.66 0.61 0.59 0.51 0.49 0.70 0.81 0.69 0.58 0.54 0.50 0.50 0.57 0.64 0.63 0.64 0.62 0.53 0.45 0.40 0.39 0.34 0.33 0.35 0.35 0.37 0.37 0.36 0.36 0.38 0.42 0.40 0.30
1.00 0.88 0.74 0.70 0.69 0.66 0.69 0.78 0.87 0.93 0.88 0.71 0.56 0.47 0.43 0.56 0.69 0.66 0.57 0.50 0.47 0.46 0.50 0.55 0.56 0.56 0.56 0.52 0.43 0.41 0.42 0.43 0.40 0.41 0.42 0.40 0.39 0.35 0.33 0.35 0.35 0.34 0.29
0.93 0.87 0.78 0.75 0.75 0.68 0.64 0.71 0.78 0.85 0.92 0.87 0.70 0.54 0.48 0.58 0.67 0.63 0.53 0.45 0.44 0.41 0.40 0.44 0.48 0.50 0.51 0.48 0.44 0.44 0.45 0.47 0.42 0.41 0.46 0.45 0.39 0.37 0.32 0.32 0.33 0.33 0.30
0.77 0.63 0.61 0.68 0.70 0.67 0.65 0.69 0.77 0.83 0.88 0.85 0.74 0.59 0.49 0.54 0.61 0.57 0.48 0.45 0.43 0.38 0.35 0.38 0.41 0.45 0.47 0.45 0.45 0.46 0.46 0.49 0.46 0.41 0.44 0.48 0.41 0.38 0.34 0.29 0.30 0.27 0.24
0.67 0.53 0.43 0.49 0.60 0.64 0.67 0.73 0.82 0.86 0.87 0.79 0.64 0.49 0.42 0.41 0.48 0.44 0.41 0.43 0.40 0.37 0.35 0.34 0.35 0.38 0.40 0.41 0.42 0.42 0.40 0.42 0.44 0.38 0.38 0.45 0.43 0.41 0.39 0.31 0.27 0.24 0.21
0.63 0.53 0.44 0.45 0.51 0.56 0.66 0.77 0.82 0.80 0.74 0.66 0.55 0.44 0.41 0.39 0.43 0.44 0.44 0.41 0.36 0.34 0.30 0.29 0.29 0.30 0.32 0.33 0.32 0.33 0.32 0.32 0.35 0.35 0.34 0.39 0.43 0.43 0.42 0.36 0.31 0.28 0.24
0.57 0.44 0.36 0.36 0.39 0.42 0.54 0.70 0.72 0.64 0.54 0.49 0.47 0.42 0.39 0.39 0.39 0.40 0.40 0.37 0.34 0.32 0.27 0.26 0.27 0.29 0.30 0.26 0.23 0.22 0.22 0.23 0.23 0.25 0.28 0.32 0.39 0.43 0.39 0.36 0.34 0.29 0.26
0.51 0.38 0.27 0.24 0.28 0.36 0.49 0.61 0.59 0.48 0.40 0.37 0.37 0.37 0.34 0.34 0.32 0.32 0.33 0.33 0.30 0.29 0.28 0.25 0.24 0.23 0.22 0.21 0.19 0.18 0.17 0.16 0.17 0.21 0.24 0.27 0.31 0.38 0.36 0.34 0.36 0.31 0.27
0.48 0.38 0.29 0.24 0.26 0.36 0.49 0.54 0.44 0.33 0.28 0.28 0.28 0.29 0.29 0.30 0.30 0.31 0.32 0.31 0.28 0.28 0.26 0.21 0.20 0.19 0.17 0.14 0.12 0.13 0.14 0.14 0.16 0.20 0.25 0.28 0.29 0.33 0.34 0.31 0.35 0.35 0.28
0.43 0.39 0.32 0.27 0.28 0.36 0.44 0.44 0.35 0.26 0.24 0.24 0.24 0.25 0.25 0.26 0.26 0.27 0.28 0.26 0.25 0.24 0.20 0.16 0.15 0.15 0.13 0.11 0.09 0.10 0.10 0.11 0.15 0.20 0.25 0.27 0.28 0.30 0.32 0.31 0.32 0.33 0.27